Regional Weather Roundup
Issued by NWS

Home | Current Version | Previous Version | Graphics & Text | Print | Product List | Glossary On
Versions: 1 2 3 4 5 6 7 8 9 10 11 12 13 14 15 16 17 18 19 20 21 22 23 24 25 26 27 28 29 30 31 32 33 34 35 36 37 38 39 40 41 42 43 44 45 46 47 48 49 50
000
ASUS43 KMKX 281600
RWRWI

WISCONSIN REGIONAL WEATHER ROUNDUP
NATIONAL WEATHER SERVICE MILWAUKEE/SULLIVAN WI
1000 AM CST SAT FEB 28 2015

NOTE: "FAIR" INDICATES FEW OR NO CLOUDS BELOW 12,000 FEET WITH NO
SIGNIFICANT WEATHER AND/OR OBSTRUCTIONS TO VISIBILITY.

WIZ001-002-006>008-014>016-023>028-281700-
NORTHWEST WISCONSIN

CITY           SKY/WX    TMP DP  RH WIND       PRES   REMARKS
SUPERIOR ARPT  MOSUNNY   10   1  66 SW13      30.49S WCI  -6
ASHLAND        SUNNY     12  -3  51 S10       30.50S WCI  -1
HAYWARD        SUNNY      7  -1  70 S14       30.48S WCI -10
SIREN          FAIR      10   0  63 SW8       30.51R WCI  -2
CUMBERLAND     SUNNY      3   0  85 S8        30.49F WCI -10
RICE LAKE      SUNNY      4  -1  79 S9        30.53F WCI -11
CHETEK         SUNNY      5  -2  71 S7        30.53F WCI  -7
LADYSMITH      SUNNY      3  -2  79 S5        30.54F WCI  -6
EAU CLAIRE     NOT AVBL
MENOMONIE      SUNNY      5  -2  72 S8        30.57S WCI  -8
NEW RICHMOND   SUNNY      7  -1  68 S8        30.52S WCI  -5
OSCEOLA        SUNNY      7  -1  70 S9        30.55S WCI  -6
$$

WIZ003>005-009-010-017-018-281700-
NORTH CENTRAL WISCONSIN

CITY           SKY/WX    TMP DP  RH WIND       PRES   REMARKS
MANITOWISH WTR SUNNY      5  -1  76 S6        30.45S WCI  -6
ARBOR VITAE    SUNNY      6  -1  73 S5        30.46S WCI  -3
WOODRUFF       SUNNY      6  -1  73 S5        30.46S WCI  -3
RHINELANDER    SUNNY      5  -1  76 SW6       30.49S WCI  -6
EAGLE RIVER    SUNNY      6  -2  70 SW8       30.47S WCI  -7
LAND O LAKES   SUNNY      8  -1  65 SW8       30.45F WCI  -4
PHILLIPS       FAIR       4  -2  76 S5        30.49S WCI  -5
TOMAHAWK       SUNNY      5  -1  74 CALM      30.52S
MEDFORD        SUNNY      1  -3  80 S5        30.51F WCI  -8
MERRILL        SUNNY      4  -3  70 S3        30.54S
$$

WIZ029-030-035-036-043>047-281700-
CENTRAL WISCONSIN

CITY           SKY/WX    TMP DP  RH WIND       PRES   REMARKS
WAUSAU         SUNNY      4  -2  76 S7        30.55F WCI  -8
MOSINEE        SUNNY      3  -2  78 CALM      30.57S
MARSHFIELD     SUNNY      4  -3  73 CALM      30.55F
STEVENS POINT  SUNNY      4  -4  67 SW5       30.60S WCI  -5
WAUPACA        SUNNY     10  -3  55 CALM      30.63F
WAUTOMA        NOT AVBL
WISC RAPIDS    SUNNY      6  -4  63 SW3       30.61S
CAMP DOUGLAS   NOT AVBL
$$

WIZ011>013-019>022-031-037>040-048>050-281700-
NORTHEAST WISCONSIN

CITY           SKY/WX    TMP DP  RH WIND       PRES   REMARKS
ANTIGO         SUNNY      0  -4  82 S3        30.53R
SHAWANO        SUNNY      8  -2  63 W5        30.63F WCI   0
OCONTO         SUNNY     10  -1  62 SW6       30.64S WCI   0
STURGEON BAY   SUNNY     10   0  61 W8        30.64S WCI  -1
GREEN BAY      SUNNY      9   0  67 S8        30.65S WCI  -3
MANITOWOC      NOT AVBL
APPLETON       SUNNY      9  -2  61 SW6       30.63S WCI  -1
CLINTONVILLE   SUNNY      9   0  66 SW3       30.62F
OSHKOSH        SUNNY      8  -2  63 S6        30.64F WCI  -2
$$

WIZ032>034-041-042-053>061-281700-
SOUTHWEST WISCONSIN

CITY           SKY/WX    TMP DP  RH WIND       PRES   REMARKS
LA CROSSE      SUNNY      3  -5  69 S7        30.64F WCI  -9
SPARTA         SUNNY      8  -4  60 SW6       30.63S WCI  -2
VIROQUA        SUNNY      4  -4  70 S7        30.57S WCI  -8
BOSCOBEL       SUNNY      3  -7  63 CALM      30.68F
PRAIRIE DU CHI SUNNY     -4 -11  74 CALM      30.68S
PLATTEVILLE    SUNNY     -1  -5  82 SE3       30.64S
$$

WIZ056-057-062-063-064-067-068-281700-
SOUTH CENTRAL WISCONSIN

CITY           SKY/WX    TMP DP  RH WIND       PRES   REMARKS
REEDSBURG      SUNNY      4  -4  67 S3        30.64S
BARABOO/DELLS  SUNNY      6  -4  63 SW3       30.63S
LONE ROCK      NOT AVBL
MINERAL POINT  SUNNY      5  -4  66 SE3       30.61F
MADISON        MOSUNNY    6  -4  63 S8        30.65F WCI  -7
MIDDLETON      SUNNY      8  -4  56 S6        30.65S WCI  -2
WATERTOWN      SUNNY      7  -2  65 CALM      30.67S
MONROE         SUNNY      7  -2  66 S5        30.64S WCI  -2
JANESVILLE     SUNNY      5  -4  66 CALM      30.68F
$$

WIZ051-052-058>065-066-070>072-281700-
SOUTHEAST WISCONSIN

CITY           SKY/WX    TMP DP  RH WIND       PRES   REMARKS
MILWAUKEE      SUNNY      8  -4  58 SW8       30.70S WCI  -4
WAUKESHA       SUNNY      7  -6  56 SW6       30.68S WCI  -3
MILWAUKEE/TIMM SUNNY     10  -6  48 SW9       30.70S WCI  -2
RACINE         SUNNY      8  -4  58 W6        30.72F WCI  -2
BURLINGTON     SUNNY      5  -6  61 CALM      30.69S
KENOSHA        SUNNY      9  -2  61 SW7       30.70F WCI  -2
FOND DU LAC    SUNNY     10  -2  58 SW8       30.65F WCI  -2
SHEBOYGAN      SUNNY     11  -3  53 SW6       30.66S WCI   1
WEST BEND      SUNNY     10  -6  48 W6        30.66S WCI   1
JUNEAU         SUNNY      6  -3  65 SW6       30.67S WCI  -4
$$

LSZ147-162-281700-
LAKE SUPERIOR

STATION/POSITION TIME  TEMP    WIND        PRES    WAVE
                       AIR SEA DIR/SP/G            HT/PER
                 (UTC) (F)     (DEG/KT/KT) (MB)    (FT/S)
DEVILS ISLAND    1500    8     210/  9/ 11 1034.0F
PORT WING        1500    8     190/ 10/ 15 1032.2S
SAXON HARBOR     1500    9     200/  8/ 13 1032.8S
$$

LMZ867-665-643>646-281700-
LAKE MICHIGAN

STATION/POSITION TIME  TEMP    WIND        PRES    WAVE
                       AIR SEA DIR/SP/G            HT/PER
                 (UTC) (F)     (DEG/KT/KT) (MB)    (FT/S)
NORTHPORT PIER   1500   10     230/  4/ 11 1036.9R
KEWAUNEE LAKESHO 1500    8     270/  8/ 10 1036.7F
SHEBOYGAN LAKESH 1500    8     240/  3/  5 1040.5R
PORT WASHINGTON  1540   15     230/  5/  6 1040.0S
MILWAUKEE LAKESH 1500    8     230/  6/  8   N/A
KENOSHA   LAKESH 1500    7     240/  6/  8 1040.3R
$$

TC  - TEMPERATURE IN CELSIUS
VSB - VISIBILITY IN STATUTE MILES
WCI - WIND CHILL INDEX
HX  - HEAT INDEX



USA.gov is the U.S. government's official web portal to all federal, state and local government web resources and services.